Voltar ao catálogo

STARLINK-31313

AtivoComunicaçõesVLEO
NORAD 59088·PAYLOAD·🇺🇸 United States

Lançado Feb 29, 2024 de Cape Canaveral Space Force Station

Loading…

Próximas Passagens (próximas 24 horas)

TLE

AtualizadoSource: CelesTrak SupGP

Época: Sep 15, 2026, 02:08 UTC

1 59088C 24041Q   26258.08937500  .00036231  00000+0  13122-2 0  2589
2 59088  43.0009 320.9513 0001604 263.5876 296.4853 15.27561908    11

Acompanhe STARLINK-31313 em tempo real com AllMySat

Download on the App Store